Flag for Germany Weather past 2 weeks in Zwickau, Saxony, Germany

Now
26 °F

Light snow. Low clouds.


Feels Like: 17 °F
Forecast: 13 / 31 °F
Wind: 9 mph from West

Location: Gera-Leumnitz

Current Time: Dec 29, 2014 at 6:25:52 AM

Latest Report: Dec 29, 2014 at 6:00 AM


Visibility: 1 mi

Pressure: 30.25 "Hg

Humidity: 93%

Dew point: 24 °F

Location of ZwickauLocation

Historic Weather in Zwickau — Graph

°F

Zwickau temperature yesterday

Maximum temperature yesterday: 25 °F (at 11:00 PM)
Minimum temperature yesterday: 16 °F (at 9:00 AM)
Average temperature yesterday: 20 °F

Past Weeks' High & Low Weather Summary

 TemperatureHumidityPressure
High54 °F (Dec 19, 12:00 AM)100% (Dec 14, 10:00 PM)30.43 "Hg (Dec 14, 10:00 PM)
Low16 °F (Dec 28, 9:00 AM)63% (Dec 15, 2:00 PM)29.68 "Hg (Dec 27, 4:00 PM)
Average38 °F82%30.03 "Hg
* Reported Dec 14 5:00 AM — Dec 29 5:00 AM, Zwickau, Weather by CustomWeather, © 2014

Note: Actual official high and low records may vary slightly from our data, if they occured in-between our weather recording intervals... More about our weather records

Advertising

Zwickau weather history for previous 24 hours

 ConditionsComfort  
Time TempWeatherWind HumidityBarometerVisibility
5:00 AM
Dec 29
26 °FLight snow. Low clouds.7 mph88%30.28 "Hg1 mi
4:00 AM27 °FOvercast.5 mph76%30.32 "Hg14 mi
3:00 AM26 °FOvercast.6 mph78%30.36 "Hg11 mi
2:00 AM26 °FPassing clouds.9 mph78%30.37 "Hg11 mi
1:00 AM26 °FPassing clouds.6 mph84%30.40 "Hg11 mi
12:00 AM26 °FOvercast.5 mph88%30.42 "Hg9 mi
11:00 PM
Dec 28
25 °FLow clouds.3 mph88%30.42 "Hg9 mi
10:00 PM25 °FLow clouds.3 mph88%30.43 "Hg8 mi
9:00 PM24 °FLow clouds.2 mph89%30.42 "Hg5 mi
8:00 PM24 °FLow clouds.3 mph90%30.42 "Hg6 mi
7:00 PM24 °FFog.3 mph89%30.39 "Hg4 mi
6:00 PM23 °FLow clouds.2 mph85%30.37 "Hg6 mi
5:00 PM22 °FSnow flurries. Low clouds.2 mph83%30.35 "Hg4 mi
4:00 PM21 °FSnow flurries. Overcast.5 mph80%30.32 "Hg12 mi
3:00 PM20 °FOvercast.3 mph77%30.30 "Hg16 mi
2:00 PM18 °FScattered clouds.2 mph79%30.28 "Hg10 mi
1:00 PM18 °FSnow flurries. Overcast.5 mph82%30.27 "Hg9 mi
12:00 PM17 °FSnow flurries. Low clouds.6 mph81%30.25 "Hg7 mi
11:00 AM17 °FSnow flurries. Low clouds.3 mph83%30.22 "Hg4 mi
10:00 AM16 °FSnow flurries. Low clouds.5 mph84%30.18 "Hg4 mi
9:00 AM16 °FSnow flurries. Low clouds.6 mph82%30.14 "Hg4 mi
8:00 AM17 °FLow clouds.6 mph85%30.09 "Hg4 mi
7:00 AM17 °FFog.7 mph86%30.04 "Hg4 mi
6:00 AM17 °FLow clouds.7 mph83%29.98 "Hg5 mi
Weather by CustomWeather, © 2014

See weather overviewHow to use our weather pages